When you browse on this site, cookies collect data to enhance your experience and personalize the content and advertising you see.
Visit our Privacy Policy to learn more. By continuing to use the site, you agree to this use of cookies and data.
  • In Hungary
  • List of Countries
  • For 7 days
  • Water Temperature
  • Weather Map
  • News
  • Weather Widgets
  • user-avatar
    Login

    Hourly Weather Trelkowo

    Today, 6 December, Friday

    Time Temperature Precipitation Wind Pressure Humidity
    00:00 -4°C° 0 mm 5 mps 745 mmHg 73%
    01:00 -4°C° 0 mm 5 mps 745 mmHg 75%
    02:00 -4°C° 0 mm 5 mps 744 mmHg 74%
    03:00 -4°C° 0 mm 5 mps 744 mmHg 74%
    04:00 -4°C° 0 mm 6 mps 743 mmHg 73%
    05:00 -4°C° 0 mm 6 mps 743 mmHg 71%
    06:00 -4°C° 0 mm 6 mps 743 mmHg 70%
    07:00 -4°C° 0 mm 6 mps 742 mmHg 68%
    08:00 -3°C° 0 mm 7 mps 742 mmHg 64%
    09:00 -2°C° 0 mm 7 mps 742 mmHg 60%
    10:00 -2°C° 0 mm 7 mps 741 mmHg 55%
    11:00 -1°C° 0 mm 7 mps 741 mmHg 54%
    12:00 -1°C° 0 mm 7 mps 741 mmHg 52%
    13:00 0°C° 0 mm 7 mps 741 mmHg 50%
    14:00 +1°C° 0 mm 6 mps 741 mmHg 52%
    15:00 -1°C° 0 mm 6 mps 741 mmHg 53%
    16:00 -1°C° 0 mm 6 mps 740 mmHg 55%
    17:00 -1°C° 0 mm 6 mps 740 mmHg 55%
    18:00 0°C° 0 mm 5 mps 740 mmHg 56%
    19:00 0°C° 0 mm 5 mps 740 mmHg 56%
    20:00 0°C° 0 mm 5 mps 740 mmHg 57%
    21:00 0°C° 0 mm 5 mps 740 mmHg 58%
    22:00 0°C° 0 mm 5 mps 739 mmHg 60%
    23:00 0°C° 0 mm 5 mps 739 mmHg 60%

    Tomorrow, 7 December, Saturday

    Time Temperature Precipitation Wind Pressure Humidity
    00:00 0°C° 0 mm 5 mps 739 mmHg 60%
    01:00 0°C° 0 mm 5 mps 739 mmHg 60%
    02:00 0°C° 0 mm 5 mps 738 mmHg 60%
    03:00 -1°C° 0 mm 6 mps 737 mmHg 61%
    04:00 -1°C° 0 mm 6 mps 737 mmHg 61%
    05:00 -1°C° 0 mm 6 mps 736 mmHg 63%
    06:00 -1°C° 0 mm 6 mps 736 mmHg 65%
    07:00 -1°C° 0 mm 6 mps 736 mmHg 67%
    08:00 -1°C° 0.1 mm 6 mps 736 mmHg 73%
    09:00 +1°C° 0.1 mm 6 mps 735 mmHg 78%
    10:00 +1°C° 0.1 mm 6 mps 735 mmHg 83%
    11:00 +2°C° 0.2 mm 6 mps 735 mmHg 86%
    12:00 +2°C° 0.2 mm 6 mps 735 mmHg 89%
    13:00 +3°C° 0.2 mm 6 mps 734 mmHg 91%
    14:00 +3°C° 0.4 mm 6 mps 734 mmHg 91%
    15:00 +3°C° 0.4 mm 5 mps 734 mmHg 91%
    16:00 +5°C° 0.4 mm 5 mps 734 mmHg 91%
    17:00 +5°C° 0.4 mm 5 mps 735 mmHg 91%
    18:00 +5°C° 0.4 mm 5 mps 735 mmHg 90%
    19:00 +5°C° 0.4 mm 5 mps 736 mmHg 90%
    20:00 +5°C° 0.3 mm 5 mps 736 mmHg 88%
    21:00 +3°C° 0.3 mm 5 mps 736 mmHg 87%
    22:00 +4°C° 0.3 mm 4 mps 736 mmHg 86%
    23:00 +3°C° 0 mm 5 mps 736 mmHg 83%

    Day after tomorrow, 8 December, Sunday

    Time Temperature Precipitation Wind Pressure Humidity
    00:00 +2°C° 0 mm 5 mps 736 mmHg 80%
    01:00 +1°C° 0 mm 5 mps 737 mmHg 77%
    02:00 +1°C° 0 mm 5 mps 737 mmHg 79%
    03:00 +1°C° 0 mm 6 mps 737 mmHg 81%
    04:00 -1°C° 0 mm 6 mps 738 mmHg 84%
    05:00 0°C° 0 mm 5 mps 738 mmHg 86%
    06:00 0°C° 0 mm 5 mps 738 mmHg 89%
    07:00 0°C° 0 mm 4 mps 739 mmHg 91%
    08:00 +1°C° 0 mm 4 mps 739 mmHg 90%
    09:00 +1°C° 0 mm 4 mps 738 mmHg 89%
    10:00 +3°C° 0 mm 4 mps 738 mmHg 88%
    11:00 +3°C° 0 mm 4 mps 738 mmHg 88%
    12:00 +4°C° 0 mm 4 mps 738 mmHg 87%
    13:00 +3°C° 0 mm 5 mps 737 mmHg 87%
    14:00 +3°C° 0 mm 5 mps 737 mmHg 85%
    15:00 +3°C° 0 mm 6 mps 736 mmHg 83%
    16:00 +3°C° 0 mm 6 mps 735 mmHg 81%
    17:00 +3°C° 0 mm 6 mps 735 mmHg 79%
    18:00 +4°C° 0 mm 7 mps 734 mmHg 78%
    19:00 +4°C° 0 mm 7 mps 734 mmHg 76%
    20:00 +4°C° 0.1 mm 7 mps 733 mmHg 78%
    21:00 +4°C° 0.1 mm 7 mps 733 mmHg 80%
    22:00 +4°C° 0.1 mm 7 mps 732 mmHg 82%
    23:00 +4°C° 0.1 mm 7 mps 732 mmHg 84%

    9 December, Monday

    Time Temperature Precipitation Wind Pressure Humidity
    00:00 +4°C° 0.1 mm 6 mps 732 mmHg 86%
    01:00 +5°C° 0.1 mm 6 mps 731 mmHg 88%
    02:00 +5°C° 0.2 mm 6 mps 731 mmHg 86%
    03:00 +6°C° 0.2 mm 5 mps 731 mmHg 84%
    04:00 +6°C° 0.2 mm 5 mps 731 mmHg 83%
    05:00 +5°C° 0 mm 5 mps 731 mmHg 82%
    06:00 +5°C° 0 mm 5 mps 731 mmHg 80%
    07:00 +3°C° 0 mm 5 mps 731 mmHg 79%
    08:00 +3°C° 0 mm 5 mps 732 mmHg 79%
    09:00 +3°C° 0 mm 5 mps 732 mmHg 79%
    10:00 +5°C° 0 mm 5 mps 732 mmHg 79%
    11:00 +5°C° 0 mm 5 mps 732 mmHg 77%
    12:00 +5°C° 0 mm 5 mps 732 mmHg 76%
    13:00 +5°C° 0 mm 5 mps 732 mmHg 75%
    14:00 +5°C° 0 mm 4 mps 732 mmHg 75%
    15:00 +4°C° 0 mm 4 mps 732 mmHg 76%
    16:00 +4°C° 0 mm 3 mps 732 mmHg 76%
    17:00 +4°C° 0 mm 3 mps 732 mmHg 80%
    18:00 +3°C° 0 mm 3 mps 732 mmHg 83%
    19:00 +2°C° 0 mm 3 mps 732 mmHg 86%
    20:00 +2°C° 0 mm 3 mps 732 mmHg 85%
    21:00 +3°C° 0 mm 3 mps 732 mmHg 84%
    22:00 +3°C° 0 mm 3 mps 732 mmHg 83%
    23:00 +2°C° 0 mm 3 mps 732 mmHg 85%

    10 December, Tuesday

    Time Temperature Precipitation Wind Pressure Humidity
    00:00 +2°C° 0 mm 3 mps 732 mmHg 87%
    01:00 +2°C° 0 mm 2 mps 732 mmHg 90%
    02:00 +2°C° 0 mm 2 mps 732 mmHg 90%
    03:00 +2°C° 0 mm 2 mps 732 mmHg 90%
    04:00 +2°C° 0 mm 2 mps 732 mmHg 90%
    05:00 +2°C° 0 mm 2 mps 732 mmHg 90%
    06:00 +3°C° 0 mm 2 mps 733 mmHg 91%
    07:00 +3°C° 0 mm 2 mps 733 mmHg 91%
    08:00 +3°C° 0 mm 2 mps 733 mmHg 90%
    09:00 +3°C° 0 mm 2 mps 734 mmHg 88%
    10:00 +4°C° 0 mm 2 mps 734 mmHg 87%
    11:00 +3°C° 0 mm 3 mps 734 mmHg 86%
    12:00 +3°C° 0 mm 3 mps 735 mmHg 84%
    13:00 +3°C° 0 mm 4 mps 735 mmHg 83%
    14:00 +2°C° 0.3 mm 5 mps 736 mmHg 87%
    15:00 +1°C° 0.3 mm 6 mps 737 mmHg 91%
    16:00 -1°C° 0.3 mm 7 mps 738 mmHg 94%
    17:00 -2°C° 0.1 mm 6 mps 739 mmHg 85%
    18:00 -1°C° 0.1 mm 5 mps 740 mmHg 75%
    19:00 -1°C° 0.1 mm 4 mps 741 mmHg 65%
    20:00 -2°C° 0 mm 4 mps 742 mmHg 67%
    21:00 -2°C° 0 mm 4 mps 743 mmHg 69%
    22:00 -2°C° 0 mm 4 mps 744 mmHg 70%
    23:00 -2°C° 0 mm 4 mps 744 mmHg 69%

    11 December, Wednesday

    Time Temperature Precipitation Wind Pressure Humidity
    00:00 -2°C° 0 mm 3 mps 744 mmHg 68%
    01:00 -2°C° 0 mm 3 mps 744 mmHg 67%
    02:00 -2°C° 0 mm 3 mps 744 mmHg 67%
    03:00 -2°C° 0 mm 3 mps 744 mmHg 68%
    04:00 -2°C° 0 mm 3 mps 744 mmHg 68%
    05:00 -2°C° 0 mm 3 mps 743 mmHg 65%
    06:00 -3°C° 0 mm 4 mps 743 mmHg 63%
    07:00 -3°C° 0 mm 4 mps 742 mmHg 60%
    08:00 -4°C° 0 mm 5 mps 742 mmHg 59%
    09:00 -3°C° 0 mm 6 mps 742 mmHg 57%
    10:00 -3°C° 0 mm 6 mps 741 mmHg 55%
    11:00 -3°C° 0 mm 7 mps 740 mmHg 54%
    12:00 -2°C° 0 mm 7 mps 739 mmHg 53%
    13:00 -2°C° 0 mm 7 mps 739 mmHg 52%
    14:00 -2°C° 0.1 mm 7 mps 738 mmHg 62%
    15:00 -3°C° 0.1 mm 7 mps 738 mmHg 71%
    16:00 -3°C° 0.1 mm 7 mps 737 mmHg 80%
    17:00 -3°C° 0.4 mm 6 mps 737 mmHg 85%
    18:00 -2°C° 0.4 mm 6 mps 737 mmHg 91%
    19:00 -1°C° 0.4 mm 5 mps 736 mmHg 96%
    20:00 0°C° 0.2 mm 5 mps 736 mmHg 95%
    21:00 0°C° 0.2 mm 5 mps 736 mmHg 95%
    22:00 +1°C° 0.2 mm 5 mps 736 mmHg 95%
    23:00 +1°C° 0.1 mm 5 mps 736 mmHg 94%
    Show more